Andalusia, AL

12:53 AM CDT on October 22, 2017 (GMT -0500)
Andalusia

Weather History for K79J - January, 2014

Change the Weather History Date:

Thursday, January 30, 2014

  Actual Average (KCEW) Record (KCEW)
Temperature  
Mean Temperature 32 °F -  
Max Temperature 45 °F 62 °F 78 °F (1950)
Min Temperature 18 °F 39 °F 18 °F (2014)
Degree Days  
Heating Degree Days 34    
Moisture  
Dew Point 20 °F    
Average Humidity 64    
Maximum Humidity 82    
Minimum Humidity 49    
Precipitation  
Precipitation 0.00 in - - ()
Sea Level Pressure  
Sea Level Pressure 30.26 in    
Wind  
Wind Speed 3 mph (ESE)    
Max Wind Speed 12 mph    
Max Gust Speed -    
Visibility 9 miles    
Events      
Averages and records for this station are not official NWS values.
T = Trace of Precipitation, MM = Missing Value Source: NWS Daily Summary

Daily Weather History Graph

Daily Weather History Graph

Search for Another Location

Airport or City:

Trip Planner

Search our weather history database for the weather conditions in past years. The results will help you decide how hot, cold, wet, or windy it might be!

Date:

Astronomy

Jan. 30, 2014 Rise Set
Actual Time 6:39 AM CST 5:18 PM CST
Civil Twilight 6:13 AM CST 5:44 PM CST
Nautical Twilight 5:44 AM CST 6:13 PM CST
Astronomical Twilight 5:15 AM CST 6:42 PM CST
Moon 6:07 AM CST (1/30) 5:26 PM CST (1/30)
Length of Visible Light 11h 30m
Length of Day
10h 39m
Waning Crescent, 0% of the Moon is Illuminated
Jan 30
Waning Crescent
Jan 30
New
Feb 6
First Quarter
Feb 14
Full
Feb 22
Last Quarter

Hourly Weather History & Observations

Time (CST) Temp. Windchill Dew Point Humidity Pressure Visibility Wind Dir Wind Speed Gust Speed Precip Events Conditions
12:56 AM 19.9 °F - 10.0 °F 65% 30.33 in 10.0 mi Calm Calm - N/A   Clear
1:56 AM 21.9 °F 17.2 °F 8.1 °F 55% 30.31 in 10.0 mi East 3.5 mph - N/A   Clear
2:56 AM 21.9 °F 17.2 °F 7.0 °F 53% 30.30 in 10.0 mi East 3.5 mph - N/A   Clear
3:56 AM 21.0 °F - 8.1 °F 57% 30.31 in 10.0 mi Calm Calm - N/A   Clear
4:56 AM 19.0 °F 13.9 °F 10.0 °F 68% 30.32 in 10.0 mi North 3.5 mph - N/A   Clear
5:56 AM 18.0 °F - 10.0 °F 71% 30.34 in 10.0 mi Calm Calm - N/A   Clear
6:56 AM 19.9 °F 14.9 °F 9.0 °F 62% 30.34 in 10.0 mi East 3.5 mph - N/A   Clear
7:56 AM 25.0 °F 15.5 °F 12.0 °F 58% 30.34 in 10.0 mi East 9.2 mph - N/A   Clear
8:56 AM 30.9 °F 21.7 °F 19.0 °F 61% 30.33 in 10.0 mi ESE 11.5 mph - N/A   Clear
9:56 AM 34.0 °F 26.6 °F 23.0 °F 64% 30.32 in 10.0 mi ESE 9.2 mph - N/A   Clear
10:56 AM 37.0 °F 32.4 °F 24.1 °F 59% 30.31 in 10.0 mi SE 5.8 mph - N/A   Clear
11:56 AM 39.9 °F - 25.0 °F 55% 30.28 in 10.0 mi Calm Calm - N/A   Clear
12:56 PM 42.1 °F 37.1 °F 26.1 °F 53% 30.25 in 10.0 mi ENE 8.1 mph - N/A   Clear
1:56 PM 44.1 °F 41.5 °F 26.1 °F 49% 30.23 in 10.0 mi ESE 4.6 mph - N/A   Clear
2:56 PM 45.0 °F 40.6 °F 27.0 °F 49% 30.21 in 10.0 mi SE 8.1 mph - N/A   Clear
3:56 PM 44.1 °F 42.5 °F 28.0 °F 53% 30.20 in 10.0 mi SE 3.5 mph - N/A   Clear
4:56 PM 42.1 °F 37.1 °F 28.0 °F 58% 30.19 in 10.0 mi SE 8.1 mph - N/A   Clear
5:56 PM 37.9 °F 33.5 °F 26.1 °F 62% 30.19 in 10.0 mi SSE 5.8 mph - N/A   Clear
6:56 PM 33.1 °F - 26.1 °F 75% 30.20 in 10.0 mi Calm Calm - N/A   Clear
7:56 PM 32.0 °F - 26.1 °F 79% 30.20 in 10.0 mi Calm Calm - N/A   Clear
8:56 PM 32.0 °F 27.5 °F 27.0 °F 82% 30.19 in 8.0 mi SE 4.6 mph - N/A   Clear
9:56 PM 30.9 °F - 26.1 °F 82% 30.19 in 5.0 mi Calm Calm - N/A   Haze
10:56 PM 30.9 °F - 26.1 °F 82% 30.21 in 6.0 mi Calm Calm - N/A   Haze
11:56 PM 30.0 °F 26.5 °F 25.0 °F 82% 30.19 in 5.0 mi SE 3.5 mph - N/A   Haze